Location: Choisy
(48.7685°N, 2.4187°E)
Time: 18:57:36
(UTC+00:00)

Envisat - Pass Details

Date: 02 March 2024
Orbit: 762 x 764 km, 98.3° (Epoch: 24 April)

Event Time Altitude Azimuth Distance (km) Brightness Sun altitude
Rises 04:41:39 0° 4° (N) 3,244 6.4 -18.5°
Reaches altitude 10° 04:44:20 10° 351° (N) 2,313 5.5 -18.1°
Maximum altitude 04:48:20 24° 299° (WNW) 1,551 4.1 -17.4°
Enters shadow 04:48:32 24° 296° (WNW) 1,553 4.1 -17.4°
